Regional Weather Roundup
Issued by NWS Cleveland, OH

Home | Current Version | Previous Version | Graphics & Text | Print | Product List | Glossary On
Versions: 1 2 3 4 5 6 7 8 9 10 11 12 13 14 15 16 17 18 19 20 21 22 23 24 25 26 27 28 29 30 31 32 33 34 35 36 37 38 39 40 41 42 43 44 45 46 47 48 49 50
000
ASUS41 KCLE 180902
RWRCLE
OHIO REGIONAL WEATHER ROUNDUP
NATIONAL WEATHER SERVICE CLEVELAND, OH
500 AM EDT FRI APR 18 2014

NOTE: "FAIR" INDICATES FEW OR NO CLOUDS BELOW 12,000 FEET WITH NO
SIGNIFICANT WEATHER AND/OR OBSTRUCTIONS TO VISIBILITY.

OHZ001>008-015>018-024>027-034-035-043-044-181000-
   NORTHWEST OHIO

CITY           SKY/WX    TMP DP  RH WIND       PRES   REMARKS
DEFIANCE       MOCLDY    44  35  70 CALM      30.24S
FINDLAY        CLEAR     45  35  68 S6        30.23R
TOLEDO EXPRESS MOCLDY    43  35  73 CALM      30.23R
TOLEDO EXEC    PTCLDY    47  36  65 SW5       30.23F
LIMA           CLEAR     47  34  60 SW5       30.24S
$$

OHZ009>014-019>023-028>033-038-089-181000-
   NORTHEAST OHIO

CITY           SKY/WX    TMP DP  RH WIND       PRES   REMARKS
CLE-HOPKINS    MOCLDY    49  30  48 S12       30.27F
CLE-LAKEFRONT  CLEAR     50  29  44 SE15      30.23F
CUY CO. ARPT   NOT AVBL
LORAIN-ELYRIA  PTCLDY    48  32  53 S6        30.25F
ASHTABULA      CLEAR     45  27  49 S10       30.29S
AKRON-CANTON   PTCLDY    47  28  47 SE3       30.27F
WOOSTER        PTCLDY    41  30  65 S3        30.27F
MANSFIELD      CLEAR     45  31  58 S9        30.26R
YOUNGSTOWN     PTCLDY    43  27  53 SE8       30.28S
$$

OHZ042-051>053-060>062-070>072-077>081-181000-
  SOUTHWEST OHIO

CITY           SKY/WX    TMP DP  RH WIND       PRES   REMARKS
CINC-COVINGTON CLOUDY    41  37  86 S5        30.27R
CINC-LUNKEN    PTCLDY    39  39 100 CALM      30.29R
HAMILTON       MOCLDY    41  37  86 CALM      30.28R
DAYTON         PTCLDY    45  34  65 CALM      30.27R
WRIGHT-PAT AFB PTCLDY    42  37  84 N2        30.27R
DAYTON GENERAL MOCLDY    50  34  54 CALM      30.25R
WILMINGTON     MOCLDY    44  33  65 CALM      30.27R
$$

OHZ036-037-039>041-045>050-054>059-063>069-073>076-082>088-181000-
  CENTRAL AND SOUTHEAST OHIO

CITY           SKY/WX    TMP DP  RH WIND       PRES   REMARKS
COLUMBUS       CLOUDY    48  32  53 CALM      30.26S
OSU AIRPORT    PTCLDY    40  32  73 CALM      30.26R
BOLTON FIELD   NOT AVBL
RICKENBACK AFB NOT AVBL
NEWARK         MOCLDY    36  33  89 CALM      30.27R
MARION         CLEAR     43  32  65 S7        30.26R
LANCASTER      MOCLDY    43  32  65 SE5       30.27S
ZANESVILLE     MOCLDY    45  27  49 SE5       30.28R
NEW PHILLY     PTCLDY    41  30  65 CALM      30.30R
$$



USA.gov is the U.S. government's official web portal to all federal, state and local government web resources and services.